Погода в Гильяре

Россия / Республика Дагестан     41°33′25″N   48°15′17″E
темп.,
°C
ветер,
м/с
пор.,
м/с
влажн.,
%
обл.,
%
осадки,
мм/ч
давл.,
гПа
погр.,
м
13 мая, чт
чт1300:00+11ююз115733 0.0 101512
03:00+11юз22497 0.0 101413
06:00+16юз33535 0.0 101429
09:00+21св214920 0.0 1013260
12:00+23св325116 0.0 1013440
15:00+22ссв336144 0.0 1014592
18:00+19в227816 0.1 101421
21:00+17юз445973 0.2 101637
14 мая, пт
пт1400:00+17юз44443 0.0 101541
03:00+16юз44405 0.0 101539
06:00+17юз445365 0.0 101642
09:00+23в224461 0.0 1015467
12:00+25в554497 0.0 10151095
15:00+24всв334897 0.0 1014732
18:00+20с117031 0.0 101511
21:00+16зюз44643 0.1 101631
15 мая, сб
сб1500:00+16юз44590 0.1 101534
03:00+15юз55565 0.1 101546
06:00+17юз34602 0.0 101551
09:00+22всв32412 0.0 1015609
12:00+24всв33404 0.0 10141004
15:00+23св434015 0.0 1014869
18:00+19св11615 0.0 101411
21:00+16юз45590 0.0 101550
16 мая, вс
вс1600:00+16юз44495 0.0 101442
03:00+15юз55450 0.0 101452
06:00+16юз45510 0.0 101456
09:00+22в22340 0.0 1012630
12:00+25в33310 0.0 10101184
15:00+26всв12350 0.0 10091019
18:00+21с11610 0.0 100915
21:00+17юз56290 0.0 101060
17 мая, пн
пн1700:00+17юз56270 0.0 100960
03:00+16юз55246 0.0 100953
06:00+17юз45485 0.0 100851
09:00+23всв31385 0.0 1007452
12:00+24всв3241100 0.0 1007606
15:00+25ссв21450 0.0 1006646
18:00+22зсз11633 0.0 100712
21:00+19юз44414 0.0 100838